When you browse on this site, cookies collect data to enhance your experience and personalize the content and advertising you see.
Visit our Privacy Policy to learn more. By continuing to use the site, you agree to this use of cookies and data.

Hourly Weather Pechkovka

Today, 15 August, Saturday

Time Temperature Precipitation Wind Pressure Humidity
00:00 +11°C° 0 mm 1 mps 748 mmHg 84%
01:00 +11°C° 0 mm 1 mps 748 mmHg 85%
02:00 +10°C° 0 mm 1 mps 749 mmHg 85%
03:00 +10°C° 0 mm 1 mps 749 mmHg 86%
04:00 +10°C° 0 mm 1 mps 749 mmHg 86%
05:00 +10°C° 0 mm 1 mps 749 mmHg 87%
06:00 +12°C° 0 mm 1 mps 749 mmHg 82%
07:00 +14°C° 0 mm 1 mps 749 mmHg 78%
08:00 +15°C° 0 mm 2 mps 748 mmHg 73%
09:00 +17°C° 0 mm 2 mps 749 mmHg 71%
10:00 +18°C° 0 mm 2 mps 749 mmHg 68%
11:00 +19°C° 0 mm 2 mps 749 mmHg 66%
12:00 +20°C° 0.1 mm 3 mps 748 mmHg 66%
13:00 +20°C° 0.1 mm 3 mps 748 mmHg 67%
14:00 +20°C° 0.1 mm 3 mps 748 mmHg 67%
15:00 +20°C° 0.4 mm 3 mps 748 mmHg 71%
16:00 +20°C° 0.4 mm 3 mps 747 mmHg 74%
17:00 +20°C° 0.4 mm 3 mps 747 mmHg 78%
18:00 +18°C° 0.3 mm 3 mps 747 mmHg 83%
19:00 +17°C° 0.3 mm 3 mps 747 mmHg 87%
20:00 +16°C° 0.3 mm 3 mps 747 mmHg 92%
21:00 +14°C° 0.1 mm 3 mps 746 mmHg 93%
22:00 +14°C° 0.1 mm 3 mps 746 mmHg 94%
23:00 +15°C° 0.1 mm 2 mps 746 mmHg 95%

Tomorrow, 16 August, Sunday

Time Temperature Precipitation Wind Pressure Humidity
00:00 +14°C° 0 mm 2 mps 746 mmHg 95%
01:00 +14°C° 0 mm 2 mps 746 mmHg 95%
02:00 +14°C° 0 mm 2 mps 746 mmHg 96%
03:00 +14°C° 0 mm 2 mps 746 mmHg 95%
04:00 +13°C° 0 mm 2 mps 746 mmHg 95%
05:00 +13°C° 0 mm 2 mps 746 mmHg 95%
06:00 +15°C° 0 mm 2 mps 746 mmHg 91%
07:00 +17°C° 0 mm 2 mps 746 mmHg 88%
08:00 +18°C° 0 mm 2 mps 746 mmHg 84%
09:00 +20°C° 0 mm 2 mps 746 mmHg 79%
10:00 +21°C° 0 mm 2 mps 747 mmHg 74%
11:00 +24°C° 0 mm 2 mps 747 mmHg 69%
12:00 +24°C° 0.4 mm 3 mps 746 mmHg 69%
13:00 +24°C° 0.4 mm 3 mps 746 mmHg 68%
14:00 +25°C° 0.4 mm 3 mps 746 mmHg 67%
15:00 +25°C° 0.2 mm 3 mps 746 mmHg 70%
16:00 +25°C° 0.2 mm 3 mps 746 mmHg 73%
17:00 +24°C° 0.2 mm 2 mps 746 mmHg 76%
18:00 +23°C° 0 mm 2 mps 746 mmHg 80%
19:00 +20°C° 0 mm 2 mps 746 mmHg 84%
20:00 +19°C° 0 mm 2 mps 746 mmHg 89%
21:00 +18°C° 0 mm 2 mps 746 mmHg 89%
22:00 +17°C° 0 mm 2 mps 746 mmHg 90%
23:00 +17°C° 0 mm 2 mps 746 mmHg 91%

Day after tomorrow, 17 August, Monday

Time Temperature Precipitation Wind Pressure Humidity
00:00 +17°C° 0 mm 2 mps 746 mmHg 91%
01:00 +16°C° 0 mm 2 mps 746 mmHg 92%
02:00 +16°C° 0 mm 2 mps 746 mmHg 92%
03:00 +16°C° 0 mm 2 mps 746 mmHg 92%
04:00 +16°C° 0 mm 2 mps 746 mmHg 93%
05:00 +15°C° 0 mm 2 mps 746 mmHg 93%
06:00 +17°C° 0 mm 2 mps 746 mmHg 89%
07:00 +19°C° 0 mm 3 mps 746 mmHg 85%
08:00 +20°C° 0 mm 3 mps 746 mmHg 81%
09:00 +22°C° 0.1 mm 3 mps 746 mmHg 76%
10:00 +23°C° 0.1 mm 4 mps 746 mmHg 72%
11:00 +25°C° 0.1 mm 4 mps 746 mmHg 67%
12:00 +26°C° 0 mm 4 mps 745 mmHg 65%
13:00 +26°C° 0 mm 4 mps 745 mmHg 64%
14:00 +26°C° 0 mm 4 mps 745 mmHg 62%
15:00 +26°C° 0.1 mm 3 mps 745 mmHg 66%
16:00 +26°C° 0.1 mm 3 mps 744 mmHg 69%
17:00 +25°C° 0.1 mm 3 mps 744 mmHg 73%
18:00 +24°C° 0 mm 2 mps 744 mmHg 77%
19:00 +21°C° 0 mm 2 mps 744 mmHg 81%
20:00 +19°C° 0 mm 2 mps 744 mmHg 85%
21:00 +19°C° 0 mm 2 mps 744 mmHg 85%
22:00 +19°C° 0 mm 1 mps 744 mmHg 86%
23:00 +19°C° 0 mm 1 mps 744 mmHg 87%

18 August, Tuesday

Time Temperature Precipitation Wind Pressure Humidity
00:00 +18°C° 0 mm 1 mps 744 mmHg 88%
01:00 +18°C° 0 mm 1 mps 744 mmHg 89%
02:00 +18°C° 0 mm 1 mps 744 mmHg 90%
03:00 +18°C° 0 mm 1 mps 744 mmHg 90%
04:00 +18°C° 0 mm 1 mps 743 mmHg 90%
05:00 +16°C° 0 mm 1 mps 743 mmHg 91%
06:00 +19°C° 0 mm 1 mps 743 mmHg 87%
07:00 +20°C° 0 mm 1 mps 743 mmHg 83%
08:00 +21°C° 0 mm 2 mps 743 mmHg 80%
09:00 +23°C° 0.4 mm 2 mps 743 mmHg 75%
10:00 +24°C° 0.4 mm 2 mps 743 mmHg 70%
11:00 +25°C° 0.4 mm 2 mps 742 mmHg 66%
12:00 +26°C° 0.2 mm 2 mps 742 mmHg 63%
13:00 +26°C° 0.2 mm 2 mps 742 mmHg 60%
14:00 +27°C° 0.2 mm 2 mps 742 mmHg 57%
15:00 +26°C° 0.1 mm 2 mps 742 mmHg 61%
16:00 +26°C° 0.1 mm 2 mps 741 mmHg 66%
17:00 +25°C° 0.1 mm 2 mps 741 mmHg 70%
18:00 +24°C° 0.1 mm 2 mps 741 mmHg 73%
19:00 +21°C° 0.1 mm 2 mps 741 mmHg 76%
20:00 +19°C° 0.1 mm 2 mps 740 mmHg 79%
21:00 +19°C° 0 mm 2 mps 740 mmHg 79%
22:00 +18°C° 0 mm 2 mps 740 mmHg 79%
23:00 +18°C° 0 mm 2 mps 740 mmHg 78%

19 August, Wednesday

Time Temperature Precipitation Wind Pressure Humidity
00:00 +18°C° 0.1 mm 2 mps 740 mmHg 79%
01:00 +17°C° 0.1 mm 2 mps 739 mmHg 80%
02:00 +17°C° 0.1 mm 2 mps 739 mmHg 81%
03:00 +17°C° 0.2 mm 2 mps 739 mmHg 83%
04:00 +17°C° 0.2 mm 2 mps 739 mmHg 85%
05:00 +17°C° 0.2 mm 2 mps 739 mmHg 87%
06:00 +18°C° 0 mm 2 mps 739 mmHg 87%
07:00 +19°C° 0 mm 3 mps 739 mmHg 87%
08:00 +20°C° 0 mm 3 mps 739 mmHg 87%
09:00 +21°C° 0.1 mm 3 mps 739 mmHg 85%
10:00 +22°C° 0.1 mm 3 mps 739 mmHg 82%
11:00 +24°C° 0.1 mm 3 mps 739 mmHg 79%
12:00 +25°C° 1 mm 3 mps 739 mmHg 77%
13:00 +25°C° 1 mm 3 mps 739 mmHg 74%
14:00 +26°C° 1 mm 4 mps 738 mmHg 72%
15:00 +26°C° 0.8 mm 3 mps 738 mmHg 75%
16:00 +26°C° 0.8 mm 3 mps 738 mmHg 77%
17:00 +25°C° 0.8 mm 2 mps 738 mmHg 80%
18:00 +24°C° 0.3 mm 2 mps 738 mmHg 83%
19:00 +23°C° 0.3 mm 2 mps 738 mmHg 86%
20:00 +20°C° 0.3 mm 2 mps 738 mmHg 89%
21:00 +20°C° 0.1 mm 2 mps 738 mmHg 90%
22:00 +19°C° 0.1 mm 2 mps 738 mmHg 91%
23:00 +19°C° 0.1 mm 2 mps 738 mmHg 92%

20 August, Thursday

Time Temperature Precipitation Wind Pressure Humidity
00:00 +19°C° 0 mm 2 mps 738 mmHg 93%
01:00 +18°C° 0 mm 2 mps 738 mmHg 93%
02:00 +19°C° 0 mm 1 mps 738 mmHg 93%
03:00 +19°C° 0 mm 1 mps 739 mmHg 94%
04:00 +18°C° 0 mm 1 mps 739 mmHg 94%
05:00 +18°C° 0 mm 1 mps 739 mmHg 94%
06:00 +19°C° 0 mm 1 mps 739 mmHg 89%
07:00 +21°C° 0 mm 1 mps 739 mmHg 85%
08:00 +22°C° 0 mm 1 mps 739 mmHg 81%
09:00 +23°C° 0 mm 2 mps 739 mmHg 76%
10:00 +24°C° 0 mm 2 mps 740 mmHg 71%
11:00 +25°C° 0 mm 2 mps 740 mmHg 66%
12:00 +25°C° 0 mm 2 mps 740 mmHg 65%
13:00 +26°C° 0 mm 2 mps 740 mmHg 63%
14:00 +26°C° 0 mm 2 mps 740 mmHg 62%
15:00 +26°C° 0.1 mm 2 mps 740 mmHg 66%
16:00 +26°C° 0.1 mm 2 mps 740 mmHg 70%
17:00 +25°C° 0.1 mm 1 mps 740 mmHg 74%
18:00 +24°C° 0.3 mm 2 mps 740 mmHg 78%
19:00 +21°C° 0.3 mm 2 mps 740 mmHg 83%
20:00 +19°C° 0.3 mm 2 mps 740 mmHg 87%
21:00 +19°C° 0 mm 2 mps 740 mmHg 89%
22:00 +18°C° 0 mm 2 mps 740 mmHg 91%
23:00 +18°C° 0 mm 2 mps 740 mmHg 92%
Show more